Tracking 28790 objects as of 18-Apr-2024
HD Live streaming from Space Station
objects crossing your sky now

TITAN 401 CENTAUR R/B

Track TITAN 401 CENTAUR R/B now!


NORAD ID: 23713
Int'l Code: 1995-060B
Perigee: 35,561.8 km
Apogee: 35,848.8 km
Inclination: 14.3 °
Period: 1,431.6 minutes
Semi major axis: 42076 km
RCS: Unknown
Launch date: November 6, 1995
Source: United States (US)
Launch site: AIR FORCE EASTERN TEST RANGE (AFETR)

Note: This is a ROCKET BODY
Your satellite tracking list
Your tracking list is empty




NASA's NSSDC Master Catalog

Two Line Element Set (TLE):
1 23713U 95060B   24108.39236912  .00000104  00000-0  00000+0 0  9990
2 23713  14.2896   4.8505 0034102 198.5934 161.2468  1.00588028 17456
Source of the keplerian elements: McCants